Skip Page Navigation
NASA JPL Caltech
NASA Logo - Jet Propulsion Laboratory + View the NASA Portal
+ Center for Near-Earth Object Studies
JPL Home Earth Solar System Stars & Galaxies Technology
JPL Solar System Dynamics
BODIES ORBITS EPHEMERIDES TOOLS PHYSICAL DATA DISCOVERY FAQ SITE MAP
JPL Small-Body Database Browser
Search: [ help ]  
79225 (1994 PF16)
Classification: Main-belt Asteroid          SPK-ID: 2079225
Ephemeris | Orbit Diagram | Orbital Elements | Mission Design | Physical Parameters | Discovery Circumstances ]

[ show orbit diagram ]
Orbital Elements at Epoch 2459000.5 (2020-May-31.0) TDB
Reference: JPL 18 (heliocentric ecliptic J2000)
 Element Value Uncertainty (1-sigma)   Units 
e .1069736827176213 5.828e-08  
a 2.335444468608763 1.0297e-08 au
q 2.085613373019186 1.3453e-07 au
i 6.385202814959572 7.334e-06 deg
node 326.935430984904 4.1014e-05 deg
peri 333.6027036030209 5.0371e-05 deg
M 108.2938015604666 2.863e-05 deg
tp 2458608.348533470752
(2019-May-04.84853347)
0.00010373 TDB
period 1303.625192912851
3.57
8.6217e-06
2.36e-08
d
yr
n .2761529939411554 1.8264e-09 deg/d
Q 2.585275564198341 1.1399e-08 au
  Orbit Determination Parameters
   # obs. used (total)      527  
   data-arc span      9234 days (25.28 yr)  
   first obs. used      1994-08-10  
   last obs. used      2019-11-21  
   planetary ephem.      DE431  
   SB-pert. ephem.      SB431-N16  
   condition code      0  
   norm. resid. RMS      .59826  
   source      ORB  
   producer      Otto Matic  
   solution date      2019-Dec-14 07:43:14  

Additional Information
 Earth MOID = 1.07248 au 
 Jupiter MOID = 2.61298 au 
 T_jup = 3.552 
[ show covariance matrix ]

Ephemeris | Orbit Diagram | Orbital Elements | Mission Design | Physical Parameters | Discovery Circumstances ]

Physical Parameter Table
Parameter Symbol Value Units Sigma Reference Notes
absolute magnitude H 15.9   n/a MPO263934  

79225 (1994 PF16)          Discovered 1994-Aug-10 by Elst, E. W. at La Silla
Reference: 20040504/Numbers.arcLast Updated: 2004-07-16

Alternate Designations
 1994 PF16 = 2000 DE45 
Ephemeris | Orbit Diagram | Orbital Elements | Mission Design | Physical Parameters | Discovery Circumstances ]
ABOUT SSD CREDITS/AWARDS PRIVACY/COPYRIGHT GLOSSARY LINKS
FirstGov 2020-Oct-20 04:16 UT
(server date/time)  
NASA Home Page
Site Manager:   Ryan S. Park
Webmaster  Alan B. Chamberlin